Regional Weather Roundup
Issued by NWS

Home | Current Version | Previous Version | Graphics & Text | Print | Product List | Glossary On
Versions: 1 2 3 4 5 6 7 8 9 10 11 12 13 14 15 16 17 18 19 20 21 22 23 24 25 26 27 28 29 30 31 32 33 34 35 36 37 38 39 40 41 42 43 44 45 46 47 48 49 50
000
ASUS43 KFSD 250802
RWRSD

WEATHER ROUNDUP FOR SOUTH DAKOTA
NATIONAL WEATHER SERVICE SIOUX FALLS SD
300 AM CDT SUN JUN 25 2017

NOTE: "FAIR" INDICATES FEW OR NO CLOUDS BELOW 12,000 FEET WITH NO
SIGNIFICANT WEATHER AND/OR OBSTRUCTIONS TO VISIBILITY.


SDZ001>005-009-010-012>017-250900-
NORTHWEST AND NORTH CENTRAL SOUTH DAKOTA

CITY           SKY/WX    TMP DP  RH WIND       PRES   REMARKS
BUFFALO          N/A     48  32  53 W5        30.29S
FAITH            N/A     48  35  60 CALM      30.33S
MOBRIDGE       CLEAR     42  38  85 CALM      30.28S
$$

SDZ012>016-024>037-041>051-057-063-072>074-250900-
SOUTHWEST AND SOUTH CENTRAL SOUTH DAKOTA

CITY           SKY/WX    TMP DP  RH WIND       PRES   REMARKS
RAPID CTY ARPT CLOUDY    49  34  56 W3        30.38S
PIERRE         NOT AVBL
CUSTER         CLOUDY    45  27  49 NE3       30.42F
ELLSWORTH AFB  CLOUDY    51  32  47 W5        30.38S
PHILIP         MOCLDY    45  35  68 NW3       30.35S
PINE RIDGE     CLOUDY    47  38  71 NE6       30.37S
SPEARFISH      FAIR      43  34  70 SE6       30.38F
WINNER         FAIR      45  38  76 W6        30.33S
$$

SDZ004>011-016>023-039-040-250900-
NORTHEAST SOUTH DAKOTA

CITY           SKY/WX    TMP DP  RH WIND       PRES   REMARKS
ABERDEEN       PTCLDY    47  42  83 NW8       30.26R
WATERTOWN      MOCLDY    51  42  71 NW14      30.21S
BROOKINGS      PTCLDY    51  43  74 N8        30.22R
SISSETON         N/A     50  41  71 NW12      30.19F
$$

SDZ017-020-022-023-036>040-048>070-250900-
SOUTHEAST SOUTH DAKOTA

CITY           SKY/WX    TMP DP  RH WIND       PRES   REMARKS
SIOUX FALLS    CLEAR     49  45  86 W7        30.22S
HURON          CLEAR     45  43  93 NW7       30.26S
CHAMBERLAIN    CLEAR     47  44  87 W5        30.31R
YANKTON        CLEAR     50  43  77 W8        30.27S
$$

ABBREVIATIONS USED IN REMARKS
   TC - TEMPERATURE IN CELSIUS
  WCI - WIND CHILL INDEX
   HX - HEAT INDEX
  VSB - VISIBILITY





USA.gov is the U.S. government's official web portal to all federal, state and local government web resources and services.